User: anonymous   Login
Location: Unspecified
(0.0000°N, 0.0000°E)
Time: 06:53:20
(UTC+00:00)
Language:

MERIDIAN 6 - Orbit

View from above orbital plane
View from above orbital plane
View from above satellite
View from above satellite

Ground track
Ground track

The orbit data is extracted from the following two-line orbital elements,

1 38995U 12063A   20224.05223512 +.00000160 +00000-0 +00000-0 0  9993
2 38995 065.3343 224.6975 6471337 261.6541 025.5189 02.00593713056709
Epoch (UTC): 11 August 2020 01:15:13
Eccentricity: 0.6471337
inclination: 65.3343°
perigee height: 2993 km
apogee height: 37365 km
right ascension of ascending node: 224.6975°
argument of perigee: 261.6541°
revolutions per day: 2.00593713
mean anomaly at epoch: 25.5189°
orbit number at epoch: 5670

The dashed part of the orbit path shows where the satellite is in the earth's shadow,  

DLR